Time,TemperatureF,DewpointF,PressureIn,WindDirection,WindDirectionDegrees,WindSpeedMPH,WindSpeedGustMPH,Humidity,HourlyPrecipIn,Conditions,Clouds,dailyrainin,SoftwareType,DateUTC
2013-03-29 00:00:00,35.4,22.9,30.26,NE,45,0.0,3.6,60,0.00,,CLR,0.00,VWS V12.08,2013-03-29 04:00:00,
2013-03-29 00:03:00,35.4,22.9,30.26,NE,45,0.0,0.0,60,0.00,,CLR,0.00,VWS V12.08,2013-03-29 04:03:00,
2013-03-29 00:08:00,35.4,22.9,30.26,NE,45,0.0,0.0,60,0.00,,CLR,0.00,VWS V12.08,2013-03-29 04:08:00,
2013-03-29 00:13:00,35.4,23.3,30.26,NE,45,0.0,0.0,61,0.00,,CLR,0.00,VWS V12.08,2013-03-29 04:13:00,
2013-03-29 00:18:00,35.4,23.3,30.26,NE,45,0.0,0.0,61,0.00,,CLR,0.00,VWS V12.08,2013-03-29 04:18:00,
2013-03-29 00:23:00,35.4,23.3,30.26,NE,45,0.0,0.0,61,0.00,,CLR,0.00,VWS V12.08,2013-03-29 04:23:00,
2013-03-29 00:28:00,35.4,23.3,30.26,NE,45,0.0,0.0,61,0.00,,CLR,0.00,VWS V12.08,2013-03-29 04:28:00,
2013-03-29 00:33:00,35.6,23.5,30.26,NE,45,0.0,0.0,61,0.00,,CLR,0.00,VWS V12.08,2013-03-29 04:33:00,
2013-03-29 00:38:00,35.6,23.5,30.26,NE,45,0.0,0.0,61,0.00,,CLR,0.00,VWS V12.08,2013-03-29 04:38:00,
2013-03-29 00:43:00,35.4,23.3,30.26,NE,45,0.0,0.0,61,0.00,,CLR,0.00,VWS V12.08,2013-03-29 04:43:00,
2013-03-29 00:48:00,35.2,23.1,30.26,NE,45,0.0,0.0,61,0.00,,CLR,0.00,VWS V12.08,2013-03-29 04:48:00,
2013-03-29 00:54:00,34.9,23.2,30.26,ENE,68,0.0,0.0,62,0.00,,CLR,0.00,VWS V12.08,2013-03-29 04:54:00,
2013-03-29 00:59:00,34.5,22.9,30.26,ENE,68,0.0,0.0,62,0.00,,CLR,0.00,VWS V12.08,2013-03-29 04:59:00,
2013-03-29 01:04:00,34.3,22.7,30.26,ENE,68,0.0,0.0,62,0.00,,CLR,0.00,VWS V12.08,2013-03-29 05:04:00,
2013-03-29 01:09:00,34.3,23.1,30.26,ENE,68,0.0,0.0,63,0.00,,CLR,0.00,VWS V12.08,2013-03-29 05:09:00,
2013-03-29 01:14:00,34.2,22.9,30.26,ENE,68,0.0,0.0,63,0.00,,CLR,0.00,VWS V12.08,2013-03-29 05:14:00,
2013-03-29 01:19:00,34.0,22.7,30.26,ENE,68,0.0,0.0,63,0.00,,CLR,0.00,VWS V12.08,2013-03-29 05:19:00,
2013-03-29 01:24:00,33.8,22.9,30.26,ENE,68,0.0,0.0,64,0.00,,CLR,0.00,VWS V12.08,2013-03-29 05:24:00,
2013-03-29 01:29:00,33.8,22.9,30.26,ENE,68,0.0,0.0,64,0.00,,CLR,0.00,VWS V12.08,2013-03-29 05:29:00,
2013-03-29 01:34:00,33.6,22.4,30.26,ENE,68,0.0,0.0,63,0.00,,CLR,0.00,VWS V12.08,2013-03-29 05:34:00,
2013-03-29 01:39:00,33.6,22.8,30.26,ENE,68,0.0,0.0,64,0.00,,CLR,0.00,VWS V12.08,2013-03-29 05:39:00,
2013-03-29 01:44:00,33.4,22.6,30.26,ENE,68,0.0,0.0,64,0.00,,CLR,0.00,VWS V12.08,2013-03-29 05:44:00,
2013-03-29 01:49:00,33.4,22.6,30.26,ENE,68,0.0,0.0,64,0.00,,CLR,0.00,VWS V12.08,2013-03-29 05:49:00,
2013-03-29 01:54:00,33.4,23.0,30.26,ENE,68,0.0,0.0,65,0.00,,CLR,0.00,VWS V12.08,2013-03-29 05:54:00,
2013-03-29 01:59:00,33.3,22.4,30.26,ENE,68,0.0,0.0,64,0.00,,CLR,0.00,VWS V12.08,2013-03-29 05:59:00,
2013-03-29 02:04:00,33.1,22.6,30.26,ENE,68,0.0,0.0,65,0.00,,CLR,0.00,VWS V12.08,2013-03-29 06:04:00,
2013-03-29 02:09:00,33.3,22.4,30.26,ENE,68,0.0,0.0,64,0.00,,CLR,0.00,VWS V12.08,2013-03-29 06:09:00,
2013-03-29 02:14:00,33.4,22.6,30.26,ENE,68,0.0,0.0,64,0.00,,CLR,0.00,VWS V12.08,2013-03-29 06:14:00,
2013-03-29 02:19:00,33.4,22.6,30.26,ENE,68,0.0,0.0,64,0.00,,CLR,0.00,VWS V12.08,2013-03-29 06:19:00,
2013-03-29 02:25:00,33.4,22.6,30.26,ENE,68,0.0,0.0,64,0.00,,CLR,0.00,VWS V12.08,2013-03-29 06:25:00,
2013-03-29 02:30:00,33.3,22.8,30.26,ENE,68,0.0,0.0,65,0.00,,CLR,0.00,VWS V12.08,2013-03-29 06:30:00,
2013-03-29 02:35:00,33.1,22.2,30.26,ENE,68,0.0,0.0,64,0.00,,CLR,0.00,VWS V12.08,2013-03-29 06:35:00,
2013-03-29 02:40:00,32.7,22.3,30.26,ENE,68,0.0,0.0,65,0.00,,CLR,0.00,VWS V12.08,2013-03-29 06:40:00,
2013-03-29 02:45:00,32.5,22.1,30.27,ENE,68,0.0,0.0,65,0.00,,CLR,0.00,VWS V12.08,2013-03-29 06:45:00,
2013-03-29 02:50:00,32.5,22.5,30.27,ENE,68,0.0,0.0,66,0.00,,CLR,0.00,VWS V12.08,2013-03-29 06:50:00,
2013-03-29 02:55:00,32.2,22.1,30.27,ENE,68,0.0,0.0,66,0.00,,CLR,0.00,VWS V12.08,2013-03-29 06:55:00,
2013-03-29 03:00:00,32.2,22.1,30.26,ENE,68,0.0,0.0,66,0.00,,CLR,0.00,VWS V12.08,2013-03-29 07:00:00,
2013-03-29 03:05:00,32.2,22.1,30.27,ENE,68,0.0,0.0,66,0.00,,CLR,0.00,VWS V12.08,2013-03-29 07:05:00,
2013-03-29 03:10:00,32.2,22.1,30.27,ENE,68,0.0,0.0,66,0.00,,CLR,0.00,VWS V12.08,2013-03-29 07:10:00,
2013-03-29 03:16:00,31.8,21.8,30.27,ENE,68,0.0,0.0,66,0.00,,CLR,0.00,VWS V12.08,2013-03-29 07:16:00,
2013-03-29 03:21:00,31.8,21.8,30.27,ENE,68,0.0,0.0,66,0.00,,CLR,0.00,VWS V12.08,2013-03-29 07:21:00,
2013-03-29 03:26:00,31.6,21.6,30.26,ENE,68,0.0,0.0,66,0.00,,CLR,0.00,VWS V12.08,2013-03-29 07:26:00,
2013-03-29 03:31:00,31.5,21.8,30.26,ENE,68,0.0,0.0,67,0.00,,CLR,0.00,VWS V12.08,2013-03-29 07:31:00,
2013-03-29 03:36:00,31.3,21.6,30.26,ENE,68,0.0,0.0,67,0.00,,CLR,0.00,VWS V12.08,2013-03-29 07:36:00,
2013-03-29 03:41:00,31.5,21.8,30.26,East,90,0.0,0.0,67,0.00,,CLR,0.00,VWS V12.08,2013-03-29 07:41:00,
2013-03-29 03:46:00,31.3,21.6,30.26,East,90,0.0,0.0,67,0.00,,CLR,0.00,VWS V12.08,2013-03-29 07:46:00,
2013-03-29 03:51:00,31.3,22.0,30.25,East,90,0.0,0.0,68,0.00,,CLR,0.00,VWS V12.08,2013-03-29 07:51:00,
2013-03-29 03:56:00,31.3,22.0,30.26,ENE,68,0.0,0.0,68,0.00,,CLR,0.00,VWS V12.08,2013-03-29 07:56:00,
2013-03-29 04:02:00,31.1,21.8,30.26,East,90,0.0,0.0,68,0.00,,CLR,0.00,VWS V12.08,2013-03-29 08:02:00,
2013-03-29 04:07:00,30.7,21.8,30.26,East,90,0.0,0.0,69,0.00,,CLR,0.00,VWS V12.08,2013-03-29 08:07:00,
2013-03-29 04:12:00,30.7,21.8,30.26,East,90,0.0,0.0,69,0.00,,CLR,0.00,VWS V12.08,2013-03-29 08:12:00,
2013-03-29 04:17:00,30.7,21.8,30.26,East,90,0.0,0.0,69,0.00,,CLR,0.00,VWS V12.08,2013-03-29 08:17:00,
2013-03-29 04:22:00,30.7,21.8,30.25,East,90,0.0,0.0,69,0.00,,CLR,0.00,VWS V12.08,2013-03-29 08:22:00,
2013-03-29 04:27:00,30.7,22.1,30.25,East,90,0.0,0.0,70,0.00,,CLR,0.00,VWS V12.08,2013-03-29 08:27:00,
2013-03-29 04:32:00,30.7,22.1,30.25,ENE,68,0.0,0.0,70,0.00,,CLR,0.00,VWS V12.08,2013-03-29 08:32:00,
2013-03-29 04:37:00,30.6,22.3,30.26,ENE,68,0.0,0.0,71,0.00,,CLR,0.00,VWS V12.08,2013-03-29 08:37:00,
2013-03-29 04:42:00,30.2,21.9,30.26,ENE,68,0.0,0.0,71,0.00,,CLR,0.00,VWS V12.08,2013-03-29 08:42:00,
2013-03-29 04:47:00,30.0,21.8,30.26,ENE,68,0.0,0.0,71,0.00,,CLR,0.00,VWS V12.08,2013-03-29 08:47:00,
2013-03-29 04:53:00,29.8,21.6,30.26,East,90,0.0,0.0,71,0.00,,CLR,0.00,VWS V12.08,2013-03-29 08:53:00,
2013-03-29 04:58:00,29.7,21.1,30.25,East,90,0.0,0.0,70,0.00,,CLR,0.00,VWS V12.08,2013-03-29 08:58:00,
2013-03-29 05:03:00,29.5,21.2,30.26,East,90,0.0,0.0,71,0.00,,CLR,0.00,VWS V12.08,2013-03-29 09:03:00,
2013-03-29 05:08:00,29.5,21.2,30.26,East,90,0.0,0.0,71,0.00,,CLR,0.00,VWS V12.08,2013-03-29 09:08:00,
2013-03-29 05:13:00,29.3,21.1,30.27,East,90,0.0,0.0,71,0.00,,CLR,0.00,VWS V12.08,2013-03-29 09:13:00,
2013-03-29 05:18:00,29.3,21.1,30.27,East,90,0.0,0.0,71,0.00,,CLR,0.00,VWS V12.08,2013-03-29 09:18:00,
2013-03-29 05:23:00,29.3,21.1,30.27,East,90,0.0,0.0,71,0.00,,CLR,0.00,VWS V12.08,2013-03-29 09:23:00,
2013-03-29 05:28:00,29.5,21.2,30.27,East,90,0.0,0.0,71,0.00,,CLR,0.00,VWS V12.08,2013-03-29 09:28:00,
2013-03-29 05:33:00,29.5,21.6,30.27,East,90,0.0,0.0,72,0.00,,CLR,0.00,VWS V12.08,2013-03-29 09:33:00,
2013-03-29 05:38:00,29.5,21.6,30.27,East,90,0.0,0.0,72,0.00,,CLR,0.00,VWS V12.08,2013-03-29 09:38:00,
2013-03-29 05:44:00,29.3,21.1,30.26,East,90,0.0,0.0,71,0.00,,CLR,0.00,VWS V12.08,2013-03-29 09:44:00,
2013-03-29 05:49:00,29.3,21.4,30.27,East,90,0.0,0.0,72,0.00,,CLR,0.00,VWS V12.08,2013-03-29 09:49:00,
2013-03-29 05:54:00,29.3,21.4,30.27,East,90,0.0,0.0,72,0.00,,CLR,0.00,VWS V12.08,2013-03-29 09:54:00,
2013-03-29 05:59:00,29.3,21.4,30.27,ENE,68,0.0,0.0,72,0.00,,CLR,0.00,VWS V12.08,2013-03-29 09:59:00,
2013-03-29 06:04:00,29.3,21.4,30.27,ENE,68,0.0,0.0,72,0.00,,CLR,0.00,VWS V12.08,2013-03-29 10:04:00,
2013-03-29 06:09:00,29.1,21.2,30.27,East,90,0.0,0.0,72,0.00,,CLR,0.00,VWS V12.08,2013-03-29 10:09:00,
2013-03-29 06:14:00,28.9,21.1,30.27,East,90,0.0,0.0,72,0.00,,CLR,0.00,VWS V12.08,2013-03-29 10:14:00,
2013-03-29 06:19:00,28.8,20.9,30.27,East,90,0.0,0.0,72,0.00,,CLR,0.00,VWS V12.08,2013-03-29 10:19:00,
2013-03-29 06:24:00,28.6,20.7,30.27,East,90,0.0,0.0,72,0.00,,CLR,0.00,VWS V12.08,2013-03-29 10:24:00,
2013-03-29 06:29:00,28.6,20.7,30.28,East,90,0.0,0.0,72,0.00,,CLR,0.00,VWS V12.08,2013-03-29 10:29:00,
2013-03-29 06:35:00,28.6,20.7,30.27,ENE,68,0.0,0.0,72,0.00,,CLR,0.00,VWS V12.08,2013-03-29 10:35:00,
2013-03-29 06:40:00,28.2,20.7,30.28,NNE,22,0.0,0.0,73,0.00,,CLR,0.00,VWS V12.08,2013-03-29 10:40:00,
2013-03-29 06:45:00,28.2,20.7,30.28,North,0,0.0,0.2,73,0.00,,CLR,0.00,VWS V12.08,2013-03-29 10:45:00,
2013-03-29 06:50:00,28.2,20.7,30.29,North,0,0.0,0.2,73,0.00,,CLR,0.00,VWS V12.08,2013-03-29 10:50:00,
2013-03-29 06:55:00,28.2,20.7,30.28,North,0,0.0,0.2,73,0.00,,CLR,0.00,VWS V12.08,2013-03-29 10:55:00,
2013-03-29 07:00:00,28.0,20.5,30.29,NNE,22,0.0,0.2,73,0.00,,CLR,0.00,VWS V12.08,2013-03-29 11:00:00,
2013-03-29 07:05:00,28.0,20.5,30.29,NNW,338,0.0,0.0,73,0.00,,CLR,0.00,VWS V12.08,2013-03-29 11:05:00,
2013-03-29 07:10:00,27.7,20.2,30.29,NNW,338,0.0,0.0,73,0.00,,CLR,0.00,VWS V12.08,2013-03-29 11:10:00,
2013-03-29 07:15:00,27.7,20.2,30.29,NNW,338,0.0,0.0,73,0.00,,CLR,0.00,VWS V12.08,2013-03-29 11:15:00,
2013-03-29 07:20:00,27.7,20.2,30.29,NNW,338,0.0,0.0,73,0.00,,CLR,0.00,VWS V12.08,2013-03-29 11:20:00,
2013-03-29 07:26:00,27.7,20.2,30.29,NNW,338,0.0,0.0,73,0.00,,CLR,0.00,VWS V12.08,2013-03-29 11:26:00,
2013-03-29 07:31:00,27.7,20.2,30.29,NNW,338,0.0,0.0,73,0.00,,CLR,0.00,VWS V12.08,2013-03-29 11:31:00,
2013-03-29 07:36:00,28.0,20.8,30.29,NNW,338,0.0,0.0,74,0.00,,CLR,0.00,VWS V12.08,2013-03-29 11:36:00,
2013-03-29 07:41:00,28.0,20.8,30.29,NNW,338,0.0,0.0,74,0.00,,CLR,0.00,VWS V12.08,2013-03-29 11:41:00,
2013-03-29 07:47:00,28.2,21.0,30.30,NNW,338,0.0,0.0,74,0.00,,CLR,0.00,VWS V12.08,2013-03-29 11:47:00,
2013-03-29 07:52:00,28.2,21.0,30.30,NNE,22,0.0,0.0,74,0.00,,CLR,0.00,VWS V12.08,2013-03-29 11:52:00,
2013-03-29 07:57:00,28.4,21.2,30.29,NNE,22,0.0,0.0,74,0.00,,CLR,0.00,VWS V12.08,2013-03-29 11:57:00,
2013-03-29 08:02:00,28.6,21.4,30.30,NNE,22,0.0,0.0,74,0.00,,CLR,0.00,VWS V12.08,2013-03-29 12:02:00,
2013-03-29 08:07:00,28.8,21.5,30.29,NNE,22,0.0,0.0,74,0.00,,CLR,0.00,VWS V12.08,2013-03-29 12:07:00,
2013-03-29 08:12:00,28.9,22.0,30.30,NNE,22,0.0,0.0,75,0.00,,CLR,0.00,VWS V12.08,2013-03-29 12:12:00,
2013-03-29 08:17:00,29.1,22.2,30.30,NNE,22,0.0,0.0,75,0.00,,CLR,0.00,VWS V12.08,2013-03-29 12:17:00,
2013-03-29 08:22:00,29.1,22.2,30.30,NNE,22,0.0,0.0,75,0.00,,CLR,0.00,VWS V12.08,2013-03-29 12:22:00,
2013-03-29 08:27:00,29.7,22.7,30.30,NNE,22,0.0,0.0,75,0.00,,CLR,0.00,VWS V12.08,2013-03-29 12:27:00,
2013-03-29 08:32:00,30.0,23.1,30.30,NNE,22,0.0,0.0,75,0.00,,CLR,0.00,VWS V12.08,2013-03-29 12:32:00,
2013-03-29 08:37:00,30.6,23.9,30.30,NNE,22,0.0,0.0,76,0.00,,CLR,0.00,VWS V12.08,2013-03-29 12:37:00,
2013-03-29 08:42:00,31.1,24.4,30.30,NNE,22,0.0,0.0,76,0.00,,CLR,0.00,VWS V12.08,2013-03-29 12:42:00,
2013-03-29 08:48:00,31.8,24.8,30.30,North,0,0.0,0.0,75,0.00,,CLR,0.00,VWS V12.08,2013-03-29 12:48:00,
2013-03-29 08:53:00,32.5,25.5,30.30,North,0,0.0,0.0,75,0.00,,CLR,0.00,VWS V12.08,2013-03-29 12:53:00,
2013-03-29 08:58:00,33.6,26.2,30.30,North,0,0.0,0.0,74,0.00,,CLR,0.00,VWS V12.08,2013-03-29 12:58:00,
2013-03-29 09:03:00,34.3,26.3,30.30,NNE,22,0.0,0.0,72,0.00,,CLR,0.00,VWS V12.08,2013-03-29 13:03:00,
2013-03-29 09:08:00,34.9,26.1,30.29,North,0,0.0,0.0,70,0.00,,CLR,0.00,VWS V12.08,2013-03-29 13:08:00,
2013-03-29 09:13:00,35.4,26.3,30.30,NW,315,0.0,2.0,69,0.00,,CLR,0.00,VWS V12.08,2013-03-29 13:13:00,
2013-03-29 09:18:00,36.1,26.3,30.30,NW,315,0.0,2.0,67,0.00,,CLR,0.00,VWS V12.08,2013-03-29 13:18:00,
2013-03-29 09:23:00,36.7,26.8,30.30,NW,315,0.0,0.0,67,0.00,,CLR,0.00,VWS V12.08,2013-03-29 13:23:00,
2013-03-29 09:28:00,37.2,26.9,30.30,NW,315,0.0,0.0,66,0.00,,CLR,0.00,VWS V12.08,2013-03-29 13:28:00,
2013-03-29 09:33:00,37.9,27.2,30.30,NW,315,0.0,0.0,65,0.00,,CLR,0.00,VWS V12.08,2013-03-29 13:33:00,
2013-03-29 09:38:00,38.7,27.5,30.29,NW,315,0.0,0.0,64,0.00,,CLR,0.00,VWS V12.08,2013-03-29 13:38:00,
2013-03-29 09:43:00,39.4,28.2,30.29,North,0,0.0,0.0,64,0.00,,CLR,0.00,VWS V12.08,2013-03-29 13:43:00,
2013-03-29 09:48:00,39.9,28.8,30.29,NNE,22,0.0,0.0,64,0.00,,CLR,0.00,VWS V12.08,2013-03-29 13:48:00,
2013-03-29 09:53:00,40.6,28.6,30.29,NNE,22,0.0,0.9,62,0.00,,CLR,0.00,VWS V12.08,2013-03-29 13:53:00,
2013-03-29 09:59:00,41.2,28.8,30.29,NE,45,0.0,0.9,61,0.00,,CLR,0.00,VWS V12.08,2013-03-29 13:59:00,
2013-03-29 10:04:00,42.1,29.6,30.29,NE,45,0.0,0.0,61,0.00,,CLR,0.00,VWS V12.08,2013-03-29 14:04:00,
2013-03-29 10:09:00,43.0,29.2,30.29,NE,45,0.0,2.2,58,0.00,,CLR,0.00,VWS V12.08,2013-03-29 14:09:00,
2013-03-29 10:14:00,43.9,29.6,30.28,NE,45,0.0,2.9,57,0.00,,CLR,0.00,VWS V12.08,2013-03-29 14:14:00,
2013-03-29 10:19:00,44.8,30.1,30.28,WNW,292,3.1,3.1,56,0.00,,CLR,0.00,VWS V12.08,2013-03-29 14:19:00,
2013-03-29 10:24:00,45.5,29.8,30.29,West,270,0.0,4.5,54,0.00,,CLR,0.00,VWS V12.08,2013-03-29 14:24:00,
2013-03-29 10:29:00,46.4,30.7,30.29,WSW,248,1.8,4.5,54,0.00,,CLR,0.00,VWS V12.08,2013-03-29 14:29:00,
2013-03-29 10:34:00,47.7,30.0,30.29,WNW,292,2.0,5.4,50,0.00,,CLR,0.00,VWS V12.08,2013-03-29 14:34:00,
2013-03-29 10:39:00,48.4,30.1,30.29,NW,315,2.5,5.4,49,0.00,,CLR,0.00,VWS V12.08,2013-03-29 14:39:00,
2013-03-29 10:44:00,49.1,31.3,30.29,West,270,0.0,1.8,50,0.00,,CLR,0.00,VWS V12.08,2013-03-29 14:44:00,
2013-03-29 10:49:00,49.8,30.9,30.29,North,0,2.2,5.1,48,0.00,,CLR,0.00,VWS V12.08,2013-03-29 14:49:00,
2013-03-29 10:54:00,50.2,30.2,30.29,NW,315,0.9,6.9,46,0.00,,CLR,0.00,VWS V12.08,2013-03-29 14:54:00,
2013-03-29 10:59:00,50.5,31.1,30.29,ENE,68,0.0,6.9,47,0.00,,CLR,0.00,VWS V12.08,2013-03-29 14:59:00,
2013-03-29 11:04:00,50.7,30.2,30.29,WNW,292,0.7,5.8,45,0.00,,CLR,0.00,VWS V12.08,2013-03-29 15:04:00,
2013-03-29 11:09:00,51.4,30.3,30.28,West,270,0.0,5.8,44,0.00,,CLR,0.00,VWS V12.08,2013-03-29 15:09:00,
2013-03-29 11:14:00,51.6,30.4,30.28,NE,45,2.0,5.8,44,0.00,,CLR,0.00,VWS V12.08,2013-03-29 15:14:00,
2013-03-29 11:19:00,51.6,30.4,30.28,WNW,292,0.7,5.8,44,0.00,,CLR,0.00,VWS V12.08,2013-03-29 15:19:00,
2013-03-29 11:24:00,52.0,29.6,30.29,NW,315,6.0,6.0,42,0.00,,CLR,0.00,VWS V12.08,2013-03-29 15:24:00,
2013-03-29 11:29:00,52.3,30.5,30.28,SE,135,0.0,7.2,43,0.00,,CLR,0.00,VWS V12.08,2013-03-29 15:29:00,
2013-03-29 11:35:00,52.9,29.8,30.28,WSW,248,0.0,7.2,41,0.00,,CLR,0.00,VWS V12.08,2013-03-29 15:35:00,
2013-03-29 11:40:00,53.4,30.9,30.28,SSW,202,1.3,7.2,42,0.00,,CLR,0.00,VWS V12.08,2013-03-29 15:40:00,
2013-03-29 11:45:00,53.8,30.6,30.28,WSW,248,0.0,6.0,41,0.00,,CLR,0.00,VWS V12.08,2013-03-29 15:45:00,
2013-03-29 11:50:00,54.1,31.0,30.27,NW,315,0.0,6.0,41,0.00,,CLR,0.00,VWS V12.08,2013-03-29 15:50:00,
2013-03-29 11:55:00,54.3,30.5,30.27,NW,315,0.0,6.9,40,0.00,,CLR,0.00,VWS V12.08,2013-03-29 15:55:00,
2013-03-29 12:00:00,54.5,30.7,30.27,NW,315,6.7,6.9,40,0.00,,CLR,0.00,VWS V12.08,2013-03-29 16:00:00,
2013-03-29 12:05:00,54.7,30.2,30.26,SW,225,2.0,11.4,39,0.00,,CLR,0.00,VWS V12.08,2013-03-29 16:05:00,
2013-03-29 12:10:00,55.2,30.1,30.26,SW,225,0.0,11.4,38,0.00,,CLR,0.00,VWS V12.08,2013-03-29 16:10:00,
2013-03-29 12:15:00,55.8,29.9,30.25,WSW,248,0.0,11.4,37,0.00,,CLR,0.00,VWS V12.08,2013-03-29 16:15:00,
2013-03-29 12:20:00,55.9,26.5,30.25,NW,315,6.0,11.4,32,0.00,,CLR,0.00,VWS V12.08,2013-03-29 16:20:00,
2013-03-29 12:25:00,55.9,27.3,30.25,West,270,0.7,7.2,33,0.00,,CLR,0.00,VWS V12.08,2013-03-29 16:25:00,
2013-03-29 12:30:00,56.1,28.1,30.25,WNW,292,2.2,7.2,34,0.00,,CLR,0.00,VWS V12.08,2013-03-29 16:30:00,
2013-03-29 12:35:00,56.8,28.8,30.25,WNW,292,6.5,10.3,34,0.00,,CLR,0.00,VWS V12.08,2013-03-29 16:35:00,
2013-03-29 12:40:00,56.8,28.1,30.24,NW,315,0.0,0.0,33,0.00,,CLR,0.00,VWS V12.08,2013-03-29 16:40:00,
2013-03-29 12:45:00,57.4,27.8,30.24,West,270,0.0,5.1,32,0.00,,CLR,0.00,VWS V12.08,2013-03-29 16:45:00,
2013-03-29 12:50:00,57.9,27.5,30.24,SSE,158,3.1,5.1,31,0.00,,CLR,0.00,VWS V12.08,2013-03-29 16:50:00,
2013-03-29 12:55:00,58.3,28.6,30.24,West,270,0.0,5.1,32,0.00,,CLR,0.00,VWS V12.08,2013-03-29 16:55:00,
2013-03-29 13:00:00,58.6,27.3,30.24,West,270,0.0,0.0,30,0.00,,CLR,0.00,VWS V12.08,2013-03-29 17:00:00,
2013-03-29 13:05:00,58.6,28.1,30.23,NNW,338,0.0,4.9,31,0.00,,CLR,0.00,VWS V12.08,2013-03-29 17:05:00,
2013-03-29 13:10:00,58.5,28.0,30.23,West,270,1.1,6.0,31,0.00,,CLR,0.00,VWS V12.08,2013-03-29 17:10:00,
2013-03-29 13:15:00,58.8,29.8,30.23,WSW,248,1.6,6.0,33,0.00,,CLR,0.00,VWS V12.08,2013-03-29 17:15:00,
2013-03-29 13:20:00,59.4,30.3,30.23,South,180,0.0,0.0,33,0.00,,CLR,0.00,VWS V12.08,2013-03-29 17:20:00,
2013-03-29 13:25:00,59.7,29.8,30.22,West,270,4.7,5.6,32,0.00,,CLR,0.00,VWS V12.08,2013-03-29 17:25:00,
2013-03-29 13:30:00,60.1,28.6,30.22,NW,315,0.0,6.3,30,0.00,,CLR,0.00,VWS V12.08,2013-03-29 17:30:00,
2013-03-29 13:36:00,60.3,29.5,30.22,East,90,6.0,6.3,31,0.00,,CLR,0.00,VWS V12.08,2013-03-29 17:36:00,
2013-03-29 13:41:00,60.4,28.9,30.21,SSW,202,6.7,6.7,30,0.00,,CLR,0.00,VWS V12.08,2013-03-29 17:41:00,
2013-03-29 13:46:00,60.6,29.0,30.21,West,270,1.1,6.7,30,0.00,,CLR,0.00,VWS V12.08,2013-03-29 17:46:00,
2013-03-29 13:51:00,60.4,29.7,30.21,WSW,248,0.0,7.8,31,0.00,,CLR,0.00,VWS V12.08,2013-03-29 17:51:00,
2013-03-29 13:56:00,60.4,28.1,30.21,ENE,68,2.0,7.8,29,0.00,,CLR,0.00,VWS V12.08,2013-03-29 17:56:00,
2013-03-29 14:01:00,60.4,28.9,30.20,NNE,22,0.0,0.9,30,0.00,,CLR,0.00,VWS V12.08,2013-03-29 18:01:00,
2013-03-29 14:06:00,60.6,30.6,30.19,East,90,4.3,6.9,32,0.00,,CLR,0.00,VWS V12.08,2013-03-29 18:06:00,
2013-03-29 14:11:00,61.0,30.9,30.19,ESE,112,0.0,6.9,32,0.00,,CLR,0.00,VWS V12.08,2013-03-29 18:11:00,
2013-03-29 14:17:00,61.2,31.1,30.19,SW,225,3.6,6.9,32,0.00,,CLR,0.00,VWS V12.08,2013-03-29 18:17:00,
2013-03-29 14:22:00,61.2,31.1,30.19,SE,135,0.0,5.4,32,0.00,,CLR,0.00,VWS V12.08,2013-03-29 18:22:00,
2013-03-29 14:27:00,61.5,31.4,30.19,WSW,248,1.1,5.4,32,0.00,,CLR,0.00,VWS V12.08,2013-03-29 18:27:00,
2013-03-29 14:32:00,61.9,30.1,30.19,WNW,292,6.9,6.9,30,0.00,,CLR,0.00,VWS V12.08,2013-03-29 18:32:00,
2013-03-29 14:37:00,61.9,29.3,30.19,West,270,0.9,8.1,29,0.00,,CLR,0.00,VWS V12.08,2013-03-29 18:37:00,
2013-03-29 14:42:00,61.7,30.0,30.18,WNW,292,0.0,4.3,30,0.00,,CLR,0.00,VWS V12.08,2013-03-29 18:42:00,
2013-03-29 14:47:00,62.4,30.6,30.18,North,0,0.0,5.6,30,0.00,,CLR,0.00,VWS V12.08,2013-03-29 18:47:00,
2013-03-29 14:52:00,62.8,31.7,30.18,West,270,1.6,6.5,31,0.00,,CLR,0.00,VWS V12.08,2013-03-29 18:52:00,
2013-03-29 14:57:00,63.1,30.4,30.17,NE,45,0.0,6.5,29,0.00,,CLR,0.00,VWS V12.08,2013-03-29 18:57:00,
2013-03-29 15:02:00,63.1,30.4,30.17,WNW,292,6.7,6.7,29,0.00,,CLR,0.00,VWS V12.08,2013-03-29 19:02:00,
2013-03-29 15:07:00,63.1,30.4,30.17,North,0,0.0,7.4,29,0.00,,CLR,0.00,VWS V12.08,2013-03-29 19:07:00,
2013-03-29 15:12:00,63.0,30.2,30.17,NNW,338,0.0,7.4,29,0.00,,CLR,0.00,VWS V12.08,2013-03-29 19:12:00,
2013-03-29 15:17:00,63.0,30.2,30.16,NE,45,0.9,7.4,29,0.00,,CLR,0.00,VWS V12.08,2013-03-29 19:17:00,
2013-03-29 15:22:00,63.1,30.4,30.16,NNE,22,0.0,0.0,29,0.00,,CLR,0.00,VWS V12.08,2013-03-29 19:22:00,
2013-03-29 15:27:00,63.1,30.4,30.16,NE,45,0.0,5.6,29,0.00,,CLR,0.00,VWS V12.08,2013-03-29 19:27:00,
2013-03-29 15:32:00,63.1,29.5,30.16,WNW,292,3.4,5.6,28,0.00,,CLR,0.00,VWS V12.08,2013-03-29 19:32:00,
2013-03-29 15:38:00,63.0,30.2,30.16,SSE,158,2.2,6.3,29,0.00,,CLR,0.00,VWS V12.08,2013-03-29 19:38:00,
2013-03-29 15:43:00,63.0,30.2,30.16,North,0,0.0,3.6,29,0.00,,CLR,0.00,VWS V12.08,2013-03-29 19:43:00,
2013-03-29 15:48:00,62.6,29.9,30.16,South,180,0.0,9.4,29,0.00,,CLR,0.00,VWS V12.08,2013-03-29 19:48:00,
2013-03-29 15:53:00,62.4,30.6,30.16,WNW,292,0.0,9.4,30,0.00,,CLR,0.00,VWS V12.08,2013-03-29 19:53:00,
2013-03-29 15:58:00,62.1,30.3,30.16,WSW,248,2.9,9.4,30,0.00,,CLR,0.00,VWS V12.08,2013-03-29 19:58:00,
2013-03-29 16:03:00,61.5,29.8,30.16,WSW,248,1.6,3.4,30,0.00,,CLR,0.00,VWS V12.08,2013-03-29 20:03:00,
2013-03-29 16:08:00,61.2,29.5,30.16,NW,315,2.5,7.8,30,0.00,,CLR,0.00,VWS V12.08,2013-03-29 20:08:00,
2013-03-29 16:13:00,61.0,30.9,30.16,SSE,158,3.4,7.8,32,0.00,,CLR,0.00,VWS V12.08,2013-03-29 20:13:00,
2013-03-29 16:18:00,60.6,29.8,30.16,West,270,3.4,7.8,31,0.00,,CLR,0.00,VWS V12.08,2013-03-29 20:18:00,
2013-03-29 16:23:00,60.4,31.2,30.17,WSW,248,0.7,5.8,33,0.00,,CLR,0.00,VWS V12.08,2013-03-29 20:23:00,
2013-03-29 16:28:00,60.1,30.9,30.17,NW,315,5.1,6.0,33,0.00,,CLR,0.00,VWS V12.08,2013-03-29 20:28:00,
2013-03-29 16:33:00,59.4,30.3,30.17,WNW,292,3.6,11.4,33,0.00,,CLR,0.00,VWS V12.08,2013-03-29 20:33:00,
2013-03-29 16:38:00,58.8,29.8,30.17,NNW,338,2.2,11.4,33,0.00,,CLR,0.00,VWS V12.08,2013-03-29 20:38:00,
2013-03-29 16:43:00,58.8,30.5,30.17,North,0,0.4,8.7,34,0.00,,CLR,0.00,VWS V12.08,2013-03-29 20:43:00,
2013-03-29 16:48:00,58.6,29.6,30.17,North,0,7.2,9.0,33,0.00,,CLR,0.00,VWS V12.08,2013-03-29 20:48:00,
2013-03-29 16:53:00,58.1,29.9,30.17,NW,315,0.4,10.5,34,0.00,,CLR,0.00,VWS V12.08,2013-03-29 20:53:00,
2013-03-29 16:58:00,57.7,29.6,30.17,NW,315,10.1,13.4,34,0.00,,CLR,0.00,VWS V12.08,2013-03-29 20:58:00,
2013-03-29 17:04:00,57.4,30.0,30.17,WNW,292,0.9,7.4,35,0.00,,CLR,0.00,VWS V12.08,2013-03-29 21:04:00,
2013-03-29 17:09:00,57.0,29.7,30.17,North,0,0.0,7.8,35,0.00,,CLR,0.00,VWS V12.08,2013-03-29 21:09:00,
2013-03-29 17:14:00,56.8,30.2,30.17,WNW,292,8.1,14.1,36,0.00,,CLR,0.00,VWS V12.08,2013-03-29 21:14:00,
2013-03-29 17:19:00,56.5,29.9,30.17,West,270,2.5,14.1,36,0.00,,CLR,0.00,VWS V12.08,2013-03-29 21:19:00,
2013-03-29 17:24:00,56.3,29.7,30.17,WNW,292,0.0,8.7,36,0.00,,CLR,0.00,VWS V12.08,2013-03-29 21:24:00,
2013-03-29 17:29:00,56.1,30.2,30.17,NW,315,8.1,8.7,37,0.00,,CLR,0.00,VWS V12.08,2013-03-29 21:29:00,
2013-03-29 17:34:00,55.9,30.1,30.17,WNW,292,7.6,9.2,37,0.00,,CLR,0.00,VWS V12.08,2013-03-29 21:34:00,
2013-03-29 17:39:00,55.6,29.7,30.17,WSW,248,1.8,15.7,37,0.00,,CLR,0.00,VWS V12.08,2013-03-29 21:39:00,
2013-03-29 17:44:00,55.6,30.4,30.17,NNW,338,4.7,11.2,38,0.00,,CLR,0.00,VWS V12.08,2013-03-29 21:44:00,
2013-03-29 17:49:00,55.4,30.2,30.18,NW,315,14.1,14.1,38,0.00,,CLR,0.00,VWS V12.08,2013-03-29 21:49:00,
2013-03-29 17:54:00,55.2,30.7,30.18,NW,315,0.0,16.6,39,0.00,,CLR,0.00,VWS V12.08,2013-03-29 21:54:00,
2013-03-29 17:59:00,55.0,30.5,30.18,WNW,292,8.1,16.6,39,0.00,,CLR,0.00,VWS V12.08,2013-03-29 21:59:00,
2013-03-29 18:04:00,54.7,30.2,30.18,West,270,1.6,8.7,39,0.00,,CLR,0.00,VWS V12.08,2013-03-29 22:04:00,
2013-03-29 18:09:00,54.3,30.5,30.18,WNW,292,0.0,8.7,40,0.00,,CLR,0.00,VWS V12.08,2013-03-29 22:09:00,
2013-03-29 18:14:00,54.1,30.4,30.18,NW,315,0.0,8.7,40,0.00,,CLR,0.00,VWS V12.08,2013-03-29 22:14:00,
2013-03-29 18:19:00,54.1,31.0,30.18,West,270,2.7,8.7,41,0.00,,CLR,0.00,VWS V12.08,2013-03-29 22:19:00,
2013-03-29 18:25:00,54.0,30.8,30.19,NW,315,0.0,3.6,41,0.00,,CLR,0.00,VWS V12.08,2013-03-29 22:25:00,
2013-03-29 18:30:00,53.8,30.6,30.19,WNW,292,0.0,7.8,41,0.00,,CLR,0.00,VWS V12.08,2013-03-29 22:30:00,
2013-03-29 18:35:00,53.4,30.9,30.18,WNW,292,1.1,8.7,42,0.00,,CLR,0.00,VWS V12.08,2013-03-29 22:35:00,
2013-03-29 18:40:00,53.2,30.8,30.19,NW,315,1.3,3.1,42,0.00,,CLR,0.00,VWS V12.08,2013-03-29 22:40:00,
2013-03-29 18:45:00,53.1,30.6,30.19,WNW,292,0.0,3.1,42,0.00,,CLR,0.00,VWS V12.08,2013-03-29 22:45:00,
2013-03-29 18:50:00,52.9,31.0,30.19,West,270,0.0,3.1,43,0.00,,CLR,0.00,VWS V12.08,2013-03-29 22:50:00,
2013-03-29 18:55:00,52.7,30.9,30.19,WNW,292,0.7,3.1,43,0.00,,CLR,0.00,VWS V12.08,2013-03-29 22:55:00,
2013-03-29 19:00:00,52.5,31.2,30.19,West,270,0.0,2.2,44,0.00,,CLR,0.00,VWS V12.08,2013-03-29 23:00:00,
2013-03-29 19:06:00,52.3,31.6,30.19,NW,315,7.2,7.2,45,0.00,,CLR,0.00,VWS V12.08,2013-03-29 23:06:00,
2013-03-29 19:11:00,52.3,31.6,30.19,West,270,0.0,7.2,45,0.00,,CLR,0.00,VWS V12.08,2013-03-29 23:11:00,
2013-03-29 19:16:00,52.3,31.6,30.19,West,270,0.0,7.2,45,0.00,,CLR,0.00,VWS V12.08,2013-03-29 23:16:00,
2013-03-29 19:21:00,52.2,32.0,30.19,WSW,248,1.8,6.3,46,0.00,,CLR,0.00,VWS V12.08,2013-03-29 23:21:00,
2013-03-29 19:26:00,52.0,31.9,30.19,WNW,292,0.0,6.3,46,0.00,,CLR,0.00,VWS V12.08,2013-03-29 23:26:00,
2013-03-29 19:31:00,51.8,31.7,30.19,WSW,248,0.0,6.3,46,0.00,,CLR,0.00,VWS V12.08,2013-03-29 23:31:00,
2013-03-29 19:36:00,51.6,32.1,30.19,WNW,292,0.0,6.3,47,0.00,,CLR,0.00,VWS V12.08,2013-03-29 23:36:00,
2013-03-29 19:42:00,51.6,32.1,30.19,NW,315,0.0,4.0,47,0.00,,CLR,0.00,VWS V12.08,2013-03-29 23:42:00,
2013-03-29 19:47:00,51.4,32.4,30.19,NW,315,4.0,4.0,48,0.00,,CLR,0.00,VWS V12.08,2013-03-29 23:47:00,
2013-03-29 19:52:00,50.9,31.9,30.19,West,270,0.0,4.0,48,0.00,,CLR,0.00,VWS V12.08,2013-03-29 23:52:00,
2013-03-29 19:57:00,50.5,32.1,30.19,West,270,0.0,4.0,49,0.00,,CLR,0.00,VWS V12.08,2013-03-29 23:57:00,
2013-03-29 20:02:00,50.4,31.9,30.19,West,270,1.6,1.6,49,0.00,,CLR,0.00,VWS V12.08,2013-03-30 00:02:00,
2013-03-29 20:07:00,50.4,31.9,30.19,West,270,0.0,1.6,49,0.00,,CLR,0.00,VWS V12.08,2013-03-30 00:07:00,
2013-03-29 20:12:00,50.4,32.4,30.19,West,270,0.0,1.6,50,0.00,,CLR,0.00,VWS V12.08,2013-03-30 00:12:00,
2013-03-29 20:17:00,49.8,32.4,30.19,WSW,248,0.0,1.6,51,0.00,,CLR,0.00,VWS V12.08,2013-03-30 00:17:00,
2013-03-29 20:22:00,49.8,32.4,30.19,WSW,248,0.0,0.0,51,0.00,,CLR,0.00,VWS V12.08,2013-03-30 00:22:00,
2013-03-29 20:27:00,49.6,32.8,30.19,West,270,0.0,0.0,52,0.00,,CLR,0.00,VWS V12.08,2013-03-30 00:27:00,
2013-03-29 20:32:00,49.6,32.3,30.19,West,270,0.0,0.0,51,0.00,,CLR,0.00,VWS V12.08,2013-03-30 00:32:00,
2013-03-29 20:37:00,49.5,32.6,30.19,West,270,0.0,0.0,52,0.00,,CLR,0.00,VWS V12.08,2013-03-30 00:37:00,
2013-03-29 20:42:00,49.3,32.4,30.19,West,270,0.0,0.0,52,0.00,,CLR,0.00,VWS V12.08,2013-03-30 00:42:00,
2013-03-29 20:47:00,49.3,32.4,30.19,West,270,0.0,0.0,52,0.00,,CLR,0.00,VWS V12.08,2013-03-30 00:47:00,
2013-03-29 20:53:00,49.1,32.7,30.19,West,270,0.0,0.0,53,0.00,,CLR,0.00,VWS V12.08,2013-03-30 00:53:00,
2013-03-29 20:58:00,48.9,32.6,30.19,West,270,0.0,0.0,53,0.00,,CLR,0.00,VWS V12.08,2013-03-30 00:58:00,
2013-03-29 21:03:00,48.9,32.6,30.19,West,270,0.0,0.0,53,0.00,,CLR,0.00,VWS V12.08,2013-03-30 01:03:00,
2013-03-29 21:08:00,48.7,32.8,30.20,West,270,0.0,0.0,54,0.00,,CLR,0.00,VWS V12.08,2013-03-30 01:08:00,
2013-03-29 21:13:00,48.7,32.8,30.20,West,270,0.0,0.0,54,0.00,,CLR,0.00,VWS V12.08,2013-03-30 01:13:00,
2013-03-29 21:18:00,48.7,32.8,30.20,West,270,0.0,0.0,54,0.00,,CLR,0.00,VWS V12.08,2013-03-30 01:18:00,
2013-03-29 21:23:00,48.6,33.1,30.20,West,270,0.0,0.0,55,0.00,,CLR,0.00,VWS V12.08,2013-03-30 01:23:00,
2013-03-29 21:28:00,48.6,33.1,30.20,West,270,0.0,0.0,55,0.00,,CLR,0.00,VWS V12.08,2013-03-30 01:28:00,
2013-03-29 21:33:00,48.4,33.0,30.20,West,270,0.0,0.0,55,0.00,,CLR,0.00,VWS V12.08,2013-03-30 01:33:00,
2013-03-29 21:38:00,48.4,33.0,30.20,West,270,0.0,0.0,55,0.00,,CLR,0.00,VWS V12.08,2013-03-30 01:38:00,
2013-03-29 21:44:00,48.0,33.1,30.20,West,270,0.0,0.0,56,0.00,,CLR,0.00,VWS V12.08,2013-03-30 01:44:00,
2013-03-29 21:49:00,48.0,33.5,30.20,West,270,0.0,0.0,57,0.00,,CLR,0.00,VWS V12.08,2013-03-30 01:49:00,
2013-03-29 21:54:00,47.8,33.4,30.20,West,270,0.0,0.0,57,0.00,,CLR,0.00,VWS V12.08,2013-03-30 01:54:00,
2013-03-29 21:59:00,47.8,33.4,30.20,West,270,0.0,0.0,57,0.00,,CLR,0.00,VWS V12.08,2013-03-30 01:59:00,
2013-03-29 22:04:00,47.8,33.4,30.20,West,270,0.0,0.0,57,0.00,,CLR,0.00,VWS V12.08,2013-03-30 02:04:00,
2013-03-29 22:09:00,47.7,33.6,30.20,West,270,0.0,0.0,58,0.00,,CLR,0.00,VWS V12.08,2013-03-30 02:09:00,
2013-03-29 22:14:00,47.5,33.0,30.20,WNW,292,0.0,0.0,57,0.00,,CLR,0.00,VWS V12.08,2013-03-30 02:14:00,
2013-03-29 22:19:00,47.3,32.8,30.20,WNW,292,0.0,0.0,57,0.00,,CLR,0.00,VWS V12.08,2013-03-30 02:19:00,
2013-03-29 22:24:00,47.1,33.1,30.20,WNW,292,0.0,0.0,58,0.00,,CLR,0.00,VWS V12.08,2013-03-30 02:24:00,
2013-03-29 22:29:00,46.9,33.0,30.20,North,0,0.0,0.0,58,0.00,,CLR,0.00,VWS V12.08,2013-03-30 02:29:00,
2013-03-29 22:34:00,46.6,33.0,30.20,WSW,248,0.0,0.0,59,0.00,,CLR,0.00,VWS V12.08,2013-03-30 02:34:00,
2013-03-29 22:39:00,46.6,33.0,30.20,WSW,248,0.0,0.0,59,0.00,,CLR,0.00,VWS V12.08,2013-03-30 02:39:00,
2013-03-29 22:44:00,46.2,33.1,30.20,West,270,0.0,0.0,60,0.00,,CLR,0.00,VWS V12.08,2013-03-30 02:44:00,
2013-03-29 22:49:00,46.2,33.1,30.20,West,270,0.0,0.0,60,0.00,,CLR,0.00,VWS V12.08,2013-03-30 02:49:00,
2013-03-29 22:54:00,46.2,33.1,30.20,West,270,0.0,0.0,60,0.00,,CLR,0.00,VWS V12.08,2013-03-30 02:54:00,
2013-03-29 22:59:00,46.2,33.1,30.20,West,270,0.0,0.0,60,0.00,,CLR,0.00,VWS V12.08,2013-03-30 02:59:00,
2013-03-29 23:04:00,46.2,33.1,30.20,West,270,0.0,0.0,60,0.00,,CLR,0.00,VWS V12.08,2013-03-30 03:04:00,
2013-03-29 23:09:00,46.0,33.0,30.21,West,270,0.0,0.0,60,0.00,,CLR,0.00,VWS V12.08,2013-03-30 03:09:00,
2013-03-29 23:14:00,46.0,33.4,30.20,West,270,0.0,0.0,61,0.00,,CLR,0.00,VWS V12.08,2013-03-30 03:14:00,
2013-03-29 23:20:00,46.0,33.4,30.20,West,270,0.0,0.0,61,0.00,,CLR,0.00,VWS V12.08,2013-03-30 03:20:00,
2013-03-29 23:25:00,46.2,33.5,30.20,WNW,292,0.0,0.0,61,0.00,,CLR,0.00,VWS V12.08,2013-03-30 03:25:00,
2013-03-29 23:30:00,46.2,33.5,30.20,WNW,292,0.0,0.0,61,0.00,,CLR,0.00,VWS V12.08,2013-03-30 03:30:00,
2013-03-29 23:35:00,46.2,33.9,30.20,NE,45,0.0,0.0,62,0.00,,CLR,0.00,VWS V12.08,2013-03-30 03:35:00,
2013-03-29 23:40:00,46.2,33.9,30.19,NE,45,0.0,0.0,62,0.00,,CLR,0.00,VWS V12.08,2013-03-30 03:40:00,
2013-03-29 23:45:00,46.0,33.4,30.19,SSW,202,0.0,0.0,61,0.00,,CLR,0.00,VWS V12.08,2013-03-30 03:45:00,
2013-03-29 23:50:00,46.0,33.8,30.19,SW,225,0.0,2.0,62,0.00,,CLR,0.00,VWS V12.08,2013-03-30 03:50:00,
2013-03-29 23:55:00,46.0,33.8,30.20,SW,225,0.0,2.0,62,0.00,,CLR,0.00,VWS V12.08,2013-03-30 03:55:00,